HVN1 VVDB-VVPK

Flight info

Callsign HVN1
Flight time 1h 29m
Altitude 36000
Route BQ2G BQ W4 MC W14 NAH Q1 DAN DAN1Q
Aircraft A321/M-SDE2E3FGHIRWXY/LB1

Departure

Time 2026-04-16 05:28
Airport Dien Bien Phu Airport (VVDB)

Arrival

Time 2026-04-16 06:58
Airport Pleiku Airport (VVPK)
Time Latitude Longitude Altitude Speed Heading
2026-04-16 05:19 21.40377 103.00241 1520 ft 0 kts 74°
2026-04-16 05:22 21.40377 103.00242 1520 ft 0 kts 74°
2026-04-16 05:24 21.40375 103.00253 1520 ft 2 kts 123°
2026-04-16 05:24 21.40362 103.00257 1520 ft 2 kts 187°
2026-04-16 05:24 21.40349 103.00260 1520 ft 2 kts 167°
2026-04-16 05:24 21.40337 103.00262 1520 ft 2 kts 173°
2026-04-16 05:25 21.40320 103.00246 1520 ft 8 kts 244°
2026-04-16 05:25 21.40289 103.00203 1520 ft 8 kts 182°
2026-04-16 05:25 21.40252 103.00177 1520 ft 8 kts 256°
2026-04-16 05:25 21.40241 103.00128 1520 ft 14 kts 256°
2026-04-16 05:26 21.40311 103.00026 1520 ft 20 kts 351°
2026-04-16 05:26 21.40398 103.00002 1520 ft 19 kts 345°
2026-04-16 05:26 21.40549 102.99962 1520 ft 16 kts 346°
2026-04-16 05:26 21.40608 102.99966 1520 ft 12 kts 36°
2026-04-16 05:27 21.40662 102.99955 1520 ft 8 kts 250°
2026-04-16 05:27 21.40633 102.99938 1520 ft 8 kts 172°
2026-04-16 05:27 21.40570 102.99956 1520 ft 16 kts 167°
2026-04-16 05:27 21.40278 103.00032 1520 ft 73 kts 166°
2026-04-16 05:28 21.39591 103.00213 1521 ft 129 kts 166°
2026-04-16 05:28 21.38566 103.00481 1659 ft 163 kts 166°
2026-04-16 05:28 21.37426 103.00780 2193 ft 174 kts 167°
2026-04-16 05:28 21.36241 103.01083 2908 ft 176 kts 167°
2026-04-16 05:29 21.35058 103.01386 3461 ft 179 kts 167°
2026-04-16 05:29 21.33786 103.01712 3688 ft 196 kts 167°
2026-04-16 05:29 21.32400 103.02069 3895 ft 213 kts 167°
2026-04-16 05:29 21.30898 103.02456 4087 ft 230 kts 167°
2026-04-16 05:30 21.29300 103.02869 4272 ft 246 kts 167°
2026-04-16 05:30 21.27553 103.03321 4435 ft 265 kts 167°
2026-04-16 05:30 21.25719 103.03795 4850 ft 275 kts 167°
2026-04-16 05:30 21.23843 103.04280 5426 ft 279 kts 167°
2026-04-16 05:31 21.21951 103.04769 6045 ft 281 kts 168°
2026-04-16 05:31 21.20039 103.05264 6664 ft 284 kts 168°
2026-04-16 05:31 21.18113 103.05762 7286 ft 287 kts 168°
2026-04-16 05:31 21.16207 103.06324 7897 ft 291 kts 161°
2026-04-16 05:32 21.14475 103.07500 8503 ft 297 kts 137°
2026-04-16 05:32 21.13278 103.09320 9104 ft 304 kts 116°
2026-04-16 05:32 21.12724 103.11513 9750 ft 308 kts 97°
2026-04-16 05:32 21.12734 103.13795 10355 ft 313 kts 84°
2026-04-16 05:33 21.12976 103.16162 10788 ft 327 kts 85°
2026-04-16 05:33 21.13176 103.18650 11039 ft 344 kts 85°
2026-04-16 05:33 21.13391 103.21270 11298 ft 361 kts 85°
2026-04-16 05:33 21.13617 103.23997 11727 ft 371 kts 85°
2026-04-16 05:34 21.13850 103.26775 12348 ft 375 kts 85°
2026-04-16 05:34 21.14084 103.29579 12935 ft 380 kts 85°
2026-04-16 05:34 21.14323 103.32421 13516 ft 386 kts 85°
2026-04-16 05:34 21.14563 103.35271 14102 ft 390 kts 85°
2026-04-16 05:35 21.14809 103.38191 14668 ft 396 kts 85°
2026-04-16 05:35 21.15059 103.41151 15247 ft 401 kts 85°
2026-04-16 05:35 21.15359 103.44148 15812 ft 406 kts 84°
2026-04-16 05:35 21.15679 103.47139 16351 ft 411 kts 84°
2026-04-16 05:36 21.16000 103.50192 16881 ft 415 kts 84°
2026-04-16 05:36 21.16322 103.53281 17397 ft 420 kts 84°
2026-04-16 05:36 21.16646 103.56410 17897 ft 425 kts 84°
2026-04-16 05:36 21.16972 103.59577 18396 ft 429 kts 84°
2026-04-16 05:37 21.17298 103.62754 18930 ft 432 kts 84°
2026-04-16 05:37 21.17627 103.65965 19441 ft 435 kts 84°
2026-04-16 05:37 21.17960 103.69215 19941 ft 438 kts 84°
2026-04-16 05:37 21.18315 103.72461 20422 ft 441 kts 84°
2026-04-16 05:38 21.18662 103.75742 20892 ft 444 kts 84°
2026-04-16 05:38 21.19003 103.79048 21351 ft 447 kts 84°
2026-04-16 05:38 21.19343 103.82376 21796 ft 450 kts 84°
2026-04-16 05:38 21.19676 103.85676 22222 ft 452 kts 84°
2026-04-16 05:39 21.20015 103.89037 22656 ft 455 kts 84°
2026-04-16 05:39 21.20355 103.92413 23087 ft 457 kts 84°
2026-04-16 05:39 21.20696 103.95807 23477 ft 459 kts 84°
2026-04-16 05:39 21.21007 103.99224 23860 ft 462 kts 88°
2026-04-16 05:40 21.20843 104.02669 24241 ft 461 kts 101°
2026-04-16 05:40 21.20012 104.05985 24581 ft 460 kts 114°
2026-04-16 05:40 21.18657 104.09035 24909 ft 459 kts 122°
2026-04-16 05:40 21.16989 104.11943 25252 ft 460 kts 126°
2026-04-16 05:41 21.15219 104.14819 25567 ft 462 kts 127°
2026-04-16 05:41 21.13462 104.17721 25890 ft 465 kts 126°
2026-04-16 05:41 21.11713 104.20659 26210 ft 468 kts 126°
2026-04-16 05:41 21.09965 104.23622 26511 ft 471 kts 126°
2026-04-16 05:42 21.08220 104.26593 26820 ft 473 kts 126°
2026-04-16 05:42 21.06463 104.29593 27124 ft 476 kts 126°
2026-04-16 05:42 21.04702 104.32600 27412 ft 478 kts 126°
2026-04-16 05:42 21.02937 104.35620 27696 ft 480 kts 126°
2026-04-16 05:43 21.01168 104.38671 27974 ft 483 kts 126°
2026-04-16 05:43 20.99386 104.41740 28256 ft 485 kts 125°
2026-04-16 05:43 20.97600 104.44816 28501 ft 487 kts 126°
2026-04-16 05:43 20.95800 104.47898 28772 ft 489 kts 126°
2026-04-16 05:44 20.94010 104.50953 29017 ft 491 kts 126°
2026-04-16 05:44 20.92171 104.54088 29294 ft 493 kts 126°
2026-04-16 05:44 20.90344 104.57198 29508 ft 495 kts 126°
2026-04-16 05:44 20.88537 104.60274 29759 ft 497 kts 126°
2026-04-16 05:45 20.86677 104.63441 30081 ft 497 kts 126°
2026-04-16 05:45 20.84851 104.66568 30442 ft 496 kts 124°
2026-04-16 05:45 20.83196 104.69807 30785 ft 498 kts 120°
2026-04-16 05:45 20.81798 104.73213 31120 ft 501 kts 114°
2026-04-16 05:46 20.80645 104.76734 31414 ft 502 kts 111°
2026-04-16 05:46 20.79587 104.80304 31773 ft 501 kts 111°
2026-04-16 05:46 20.78538 104.83801 32110 ft 500 kts 111°
2026-04-16 05:46 20.77461 104.87346 32409 ft 500 kts 111°
2026-04-16 05:47 20.76379 104.90884 32745 ft 499 kts 111°
2026-04-16 05:47 20.75294 104.94416 33066 ft 499 kts 111°
2026-04-16 05:47 20.74210 104.97933 33336 ft 499 kts 111°
2026-04-16 05:47 20.73127 105.01443 33659 ft 498 kts 111°
2026-04-16 05:48 20.72038 105.04972 33987 ft 498 kts 111°
2026-04-16 05:48 20.70977 105.08457 34282 ft 497 kts 111°
2026-04-16 05:48 20.69889 105.12007 34593 ft 496 kts 111°
2026-04-16 05:48 20.68810 105.15512 34892 ft 496 kts 111°
2026-04-16 05:49 20.67728 105.19017 35168 ft 496 kts 111°
2026-04-16 05:49 20.66661 105.22477 35450 ft 496 kts 111°
2026-04-16 05:49 20.65592 105.25969 35733 ft 495 kts 111°
2026-04-16 05:49 20.64512 105.29465 35846 ft 497 kts 111°
2026-04-16 05:50 20.63420 105.32982 35852 ft 498 kts 111°
2026-04-16 05:50 20.61238 105.39987 35852 ft 494 kts 111°
2026-04-16 05:51 20.59071 105.46937 35853 ft 492 kts 111°
2026-04-16 05:51 20.56911 105.53857 35853 ft 493 kts 111°
2026-04-16 05:52 20.54752 105.60761 35853 ft 493 kts 111°
2026-04-16 05:52 20.52575 105.67700 35853 ft 492 kts 111°
2026-04-16 05:53 20.50432 105.74522 35854 ft 491 kts 111°
2026-04-16 05:53 20.48284 105.81411 35854 ft 492 kts 111°
2026-04-16 05:54 20.46126 105.88330 35860 ft 491 kts 111°
2026-04-16 05:54 20.43950 105.95237 35862 ft 490 kts 111°
2026-04-16 05:55 20.41784 106.02092 35863 ft 491 kts 111°
2026-04-16 05:55 20.39283 106.08826 35857 ft 484 kts 126°
2026-04-16 05:55 20.37205 106.11597 35863 ft 475 kts 141°
2026-04-16 05:56 20.34605 106.13714 35870 ft 467 kts 154°
2026-04-16 05:56 20.28921 106.16804 35867 ft 462 kts 160°
2026-04-16 05:57 20.23061 106.19650 35868 ft 462 kts 160°
2026-04-16 05:57 20.17231 106.22526 35868 ft 462 kts 160°
2026-04-16 05:58 20.11431 106.25405 35868 ft 462 kts 160°
2026-04-16 05:58 20.05612 106.28306 35869 ft 462 kts 160°
2026-04-16 05:59 19.99784 106.31216 35870 ft 462 kts 160°
2026-04-16 05:59 19.93949 106.34123 35870 ft 462 kts 160°
2026-04-16 06:00 19.88123 106.37022 35871 ft 462 kts 160°
2026-04-16 06:00 19.82338 106.39898 35871 ft 462 kts 160°
2026-04-16 06:01 19.76512 106.42791 35872 ft 462 kts 160°
2026-04-16 06:01 19.70685 106.45683 35872 ft 462 kts 160°
2026-04-16 06:02 19.61932 106.50023 35873 ft 462 kts 160°
2026-04-16 06:02 19.56138 106.52893 35874 ft 462 kts 160°
2026-04-16 06:03 19.50301 106.55787 35874 ft 462 kts 160°
2026-04-16 06:03 19.44479 106.58669 35875 ft 462 kts 160°
2026-04-16 06:04 19.38679 106.61534 35875 ft 462 kts 160°
2026-04-16 06:04 19.32848 106.64410 35876 ft 462 kts 160°
2026-04-16 06:05 19.27018 106.67284 35876 ft 462 kts 160°
2026-04-16 06:05 19.21191 106.70150 35877 ft 461 kts 160°
2026-04-16 06:06 19.15318 106.72882 35878 ft 461 kts 161°
2026-04-16 06:06 19.09487 106.75614 35885 ft 462 kts 161°
2026-04-16 06:07 19.03602 106.78368 35886 ft 461 kts 160°
2026-04-16 06:07 18.97724 106.81117 35887 ft 461 kts 160°
2026-04-16 06:08 18.92834 106.83403 35887 ft 461 kts 160°
2026-04-16 06:08 18.86002 106.86593 35884 ft 461 kts 160°
2026-04-16 06:09 18.80133 106.89331 35872 ft 461 kts 160°
2026-04-16 06:09 18.75212 106.91625 35869 ft 461 kts 160°
2026-04-16 06:10 18.68381 106.94812 35869 ft 461 kts 160°
2026-04-16 06:10 18.63465 106.97098 35868 ft 461 kts 160°
2026-04-16 06:11 18.57623 106.99813 35868 ft 461 kts 160°
2026-04-16 06:11 18.51756 107.02538 35867 ft 462 kts 160°
2026-04-16 06:12 18.45863 107.05275 35867 ft 462 kts 160°
2026-04-16 06:12 18.39979 107.08007 35865 ft 462 kts 160°
2026-04-16 06:13 18.34126 107.10731 35844 ft 461 kts 160°
2026-04-16 06:13 18.28248 107.13463 35843 ft 461 kts 160°
2026-04-16 06:14 18.22364 107.16191 35847 ft 461 kts 160°
2026-04-16 06:14 18.16496 107.18909 35846 ft 461 kts 160°
2026-04-16 06:15 18.10611 107.21633 35846 ft 461 kts 160°
2026-04-16 06:15 18.04740 107.24370 35845 ft 462 kts 159°
2026-04-16 06:16 17.98914 107.27141 35845 ft 462 kts 159°
2026-04-16 06:16 17.93050 107.29925 35844 ft 462 kts 159°
2026-04-16 06:17 17.87183 107.32708 35844 ft 462 kts 159°
2026-04-16 06:17 17.81367 107.35464 35843 ft 462 kts 159°
2026-04-16 06:18 17.75500 107.38244 35842 ft 462 kts 159°
2026-04-16 06:18 17.69635 107.41030 35842 ft 462 kts 159°
2026-04-16 06:19 17.63815 107.43788 35840 ft 462 kts 159°
2026-04-16 06:19 17.57951 107.46563 35839 ft 462 kts 159°
2026-04-16 06:20 17.52088 107.49334 35837 ft 462 kts 159°
2026-04-16 06:20 17.46260 107.52088 35836 ft 461 kts 159°
2026-04-16 06:21 17.40405 107.54856 35837 ft 461 kts 159°
2026-04-16 06:21 17.34539 107.57626 35834 ft 462 kts 159°
2026-04-16 06:22 17.28675 107.60389 35832 ft 462 kts 159°
2026-04-16 06:22 17.22842 107.63134 35831 ft 462 kts 159°
2026-04-16 06:23 17.16984 107.65890 35830 ft 462 kts 159°
2026-04-16 06:23 17.11110 107.68668 35831 ft 462 kts 158°
2026-04-16 06:24 17.05307 107.71492 35830 ft 462 kts 158°
2026-04-16 06:24 16.99467 107.74327 35829 ft 462 kts 158°
2026-04-16 06:25 16.93633 107.77167 35828 ft 462 kts 158°
2026-04-16 06:25 16.87785 107.80001 35827 ft 463 kts 158°
2026-04-16 06:26 16.81939 107.82831 35826 ft 462 kts 158°
2026-04-16 06:26 16.76130 107.85641 35826 ft 463 kts 158°
2026-04-16 06:27 16.70287 107.88466 35825 ft 463 kts 158°
2026-04-16 06:27 16.64446 107.91297 35825 ft 462 kts 158°
2026-04-16 06:28 16.58640 107.94107 35825 ft 462 kts 158°
2026-04-16 06:28 16.52790 107.96938 35825 ft 462 kts 158°
2026-04-16 06:29 16.46942 107.99757 35826 ft 463 kts 158°
2026-04-16 06:29 16.41092 108.02576 35829 ft 462 kts 158°
2026-04-16 06:30 16.35250 108.05390 35832 ft 462 kts 158°
2026-04-16 06:30 16.29408 108.08215 35836 ft 462 kts 158°
2026-04-16 06:31 16.23598 108.11014 35840 ft 462 kts 158°
2026-04-16 06:31 16.17754 108.13824 35842 ft 462 kts 158°
2026-04-16 06:32 16.11896 108.16639 35845 ft 463 kts 158°
2026-04-16 06:32 16.05915 108.19035 35846 ft 458 kts 169°
2026-04-16 06:33 15.99649 108.19751 35847 ft 454 kts 182°
2026-04-16 06:33 15.93326 108.19611 35439 ft 453 kts 184°
2026-04-16 06:34 15.90189 108.19523 34963 ft 449 kts 184°
2026-04-16 06:34 15.87127 108.19445 34486 ft 446 kts 184°
2026-04-16 06:34 15.84002 108.19370 34001 ft 442 kts 184°
2026-04-16 06:34 15.80998 108.19301 33544 ft 439 kts 184°
2026-04-16 06:35 15.77962 108.19233 33084 ft 435 kts 184°
2026-04-16 06:35 15.74867 108.19164 32618 ft 432 kts 184°
2026-04-16 06:35 15.71858 108.19099 32165 ft 428 kts 184°
2026-04-16 06:35 15.68931 108.19035 31727 ft 425 kts 183°
2026-04-16 06:36 15.65986 108.18971 31290 ft 421 kts 183°
2026-04-16 06:36 15.63059 108.18907 30854 ft 418 kts 183°
2026-04-16 06:36 15.60165 108.18845 30427 ft 415 kts 183°
2026-04-16 06:36 15.57286 108.18783 30005 ft 411 kts 183°
2026-04-16 06:37 15.54432 108.18721 29588 ft 408 kts 183°
2026-04-16 06:37 15.51600 108.18660 29170 ft 405 kts 183°
2026-04-16 06:37 15.48789 108.18599 28751 ft 402 kts 183°
2026-04-16 06:37 15.46026 108.18540 28334 ft 399 kts 183°
2026-04-16 06:38 15.43254 108.18480 27915 ft 397 kts 182°
2026-04-16 06:38 15.40507 108.18421 27499 ft 394 kts 182°
2026-04-16 06:38 15.37767 108.18362 27082 ft 391 kts 182°
2026-04-16 06:38 15.35047 108.18303 26666 ft 389 kts 182°
2026-04-16 06:39 15.32345 108.18245 26253 ft 386 kts 182°
2026-04-16 06:39 15.29663 108.18187 25840 ft 384 kts 182°
2026-04-16 06:39 15.26996 108.18130 25428 ft 382 kts 182°
2026-04-16 06:39 15.24374 108.18074 25024 ft 379 kts 182°
2026-04-16 06:40 15.21740 108.18017 24614 ft 377 kts 182°
2026-04-16 06:40 15.19119 108.17961 24208 ft 375 kts 182°
2026-04-16 06:40 15.16524 108.17905 23802 ft 373 kts 181°
2026-04-16 06:40 15.13929 108.17850 23396 ft 371 kts 181°
2026-04-16 06:41 15.11351 108.17794 22992 ft 369 kts 181°
2026-04-16 06:41 15.08787 108.17739 22588 ft 366 kts 181°
2026-04-16 06:41 15.06276 108.17684 22193 ft 364 kts 181°
2026-04-16 06:41 15.03717 108.17628 21790 ft 362 kts 181°
2026-04-16 06:42 15.01238 108.17573 21400 ft 360 kts 181°
2026-04-16 06:42 14.98731 108.17518 21004 ft 358 kts 181°
2026-04-16 06:42 14.96246 108.17463 20611 ft 356 kts 181°
2026-04-16 06:42 14.93763 108.17409 20218 ft 354 kts 181°
2026-04-16 06:43 14.91306 108.17354 19829 ft 353 kts 181°
2026-04-16 06:43 14.88854 108.17300 19441 ft 351 kts 181°
2026-04-16 06:43 14.86456 108.17248 19062 ft 349 kts 181°
2026-04-16 06:43 14.84031 108.17194 18679 ft 347 kts 181°
2026-04-16 06:44 14.81625 108.17141 18296 ft 345 kts 181°
2026-04-16 06:44 14.79223 108.17088 17916 ft 343 kts 181°
2026-04-16 06:44 14.76835 108.17036 17538 ft 342 kts 181°
2026-04-16 06:44 14.74466 108.16983 17160 ft 340 kts 181°
2026-04-16 06:45 14.72100 108.16930 16781 ft 338 kts 181°
2026-04-16 06:45 14.69747 108.16878 16405 ft 337 kts 181°
2026-04-16 06:45 14.67403 108.16827 16030 ft 336 kts 181°
2026-04-16 06:45 14.65073 108.16775 15658 ft 334 kts 181°
2026-04-16 06:46 14.62779 108.16725 15284 ft 333 kts 181°
2026-04-16 06:46 14.60460 108.16674 14901 ft 333 kts 181°
2026-04-16 06:46 14.58151 108.16623 14513 ft 332 kts 181°
2026-04-16 06:46 14.55843 108.16572 14136 ft 331 kts 181°
2026-04-16 06:47 14.53539 108.16521 13764 ft 330 kts 180°
2026-04-16 06:47 14.51248 108.16471 13399 ft 329 kts 180°
2026-04-16 06:47 14.48954 108.16421 13054 ft 327 kts 180°
2026-04-16 06:47 14.46711 108.16371 12943 ft 317 kts 180°
2026-04-16 06:48 14.44535 108.16323 12865 ft 308 kts 180°
2026-04-16 06:48 14.42404 108.16263 12731 ft 306 kts 181°
2026-04-16 06:48 14.40258 108.16218 12255 ft 311 kts 180°
2026-04-16 06:48 14.38088 108.16178 11851 ft 313 kts 180°
2026-04-16 06:49 14.35934 108.16135 11459 ft 314 kts 180°
2026-04-16 06:49 14.33746 108.16090 11064 ft 315 kts 181°
2026-04-16 06:49 14.31554 108.16044 10669 ft 315 kts 181°
2026-04-16 06:49 14.29357 108.15997 10275 ft 316 kts 181°
2026-04-16 06:50 14.27157 108.15950 9882 ft 316 kts 182°
2026-04-16 06:50 14.24970 108.15903 9687 ft 309 kts 182°
2026-04-16 06:50 14.22861 108.15923 9637 ft 297 kts 175°
2026-04-16 06:50 14.20877 108.16383 9482 ft 291 kts 159°
2026-04-16 06:51 14.19099 108.17344 9212 ft 288 kts 148°
2026-04-16 06:51 14.17421 108.18475 8894 ft 288 kts 148°
2026-04-16 06:51 14.15747 108.19554 8590 ft 286 kts 149°
2026-04-16 06:51 14.14052 108.20618 8281 ft 285 kts 150°
2026-04-16 06:52 14.12347 108.21636 7980 ft 282 kts 156°
2026-04-16 06:52 14.10478 108.22180 7663 ft 278 kts 176°
2026-04-16 06:52 14.08572 108.22127 7478 ft 271 kts 188°
2026-04-16 06:52 14.07336 108.22005 7374 ft 267 kts 186°
2026-04-16 06:53 14.05904 108.21916 7227 ft 263 kts 185°
2026-04-16 06:53 14.03503 108.21838 6921 ft 254 kts 183°
2026-04-16 06:53 14.01783 108.21729 6506 ft 245 kts 193°
2026-04-16 06:53 14.00270 108.20965 5851 ft 241 kts 227°
2026-04-16 06:54 13.99703 108.20027 5668 ft 229 kts 252°
2026-04-16 06:54 13.99684 108.18460 5464 ft 214 kts 282°
2026-04-16 06:54 14.00017 108.17035 5201 ft 205 kts 278°
2026-04-16 06:54 14.00180 108.15597 4924 ft 193 kts 274°
2026-04-16 06:55 14.00241 108.14248 4666 ft 185 kts 271°
2026-04-16 06:55 14.00264 108.12939 4428 ft 179 kts 271°
2026-04-16 06:55 14.00284 108.11703 4204 ft 170 kts 271°
2026-04-16 06:55 14.00304 108.10500 4000 ft 164 kts 271°
2026-04-16 06:56 14.00322 108.09322 3769 ft 165 kts 271°
2026-04-16 06:56 14.00341 108.08164 3553 ft 162 kts 271°
2026-04-16 06:56 14.00360 108.07010 3346 ft 161 kts 271°
2026-04-16 06:56 14.00378 108.05853 3136 ft 162 kts 271°
2026-04-16 06:57 14.00397 108.04694 2922 ft 162 kts 271°
2026-04-16 06:57 14.00411 108.03532 2660 ft 162 kts 271°
2026-04-16 06:57 14.00433 108.02379 2453 ft 158 kts 271°
2026-04-16 06:57 14.00450 108.01369 2442 ft 112 kts 271°
2026-04-16 06:58 14.00461 108.00780 2442 ft 60 kts 271°
2026-04-16 06:58 14.00466 108.00522 2442 ft 21 kts 272°
2026-04-16 06:58 14.00468 108.00475 2442 ft 18 kts 278°
2026-04-16 06:58 14.00500 108.00456 2442 ft 5 kts
2026-04-16 06:59 14.00544 108.00479 2442 ft 13 kts 73°
2026-04-16 06:59 14.00546 108.00568 2442 ft 11 kts 91°
2026-04-16 06:59 14.00548 108.00614 2442 ft 3 kts 59°
2026-04-16 06:59 14.00563 108.00623 2442 ft 3 kts 13°
2026-04-16 07:00 14.00585 108.00625 2442 ft 3 kts 359°
2026-04-16 07:00 14.00604 108.00625 2442 ft 0 kts
2026-04-16 07:00 14.00608 108.00625 2442 ft 1 kts 360°
2026-04-16 07:01 14.00617 108.00626 2442 ft 0 kts